Weather History for Fryeburg, ME

Change the Weather History Date:

Sunday, January 27, 2013

  Actual Average Record
Temperature  
Mean Temperature 12 °F -  
Max Temperature 26 °F 27 °F 43 °F (2006)
Min Temperature -2 °F 3 °F -18 °F (1997)
Degree Days  
Heating Degree Days 53    
Moisture  
Dew Point -6 °F    
Average Humidity 46    
Maximum Humidity 69    
Minimum Humidity 28    
Precipitation  
Precipitation 0.00 in - - ()
Sea Level Pressure  
Sea Level Pressure 30.31 in    
Wind  
Wind Speed 4 mph (WNW)    
Max Wind Speed 12 mph    
Max Gust Speed 18 mph    
Visibility 10 miles    
Events      
Averages and records for this station are not official NWS values.
T = Trace of Precipitation, MM = Missing Value Source: NWS Daily Summary

Daily Weather History Graph

Daily Weather History Graph

Search for Another Location

Airport:

Trip Planner

Search our weather history database for the weather conditions in past years. The results will help you decide how hot, cold, wet, or windy it might be!

Date:

Astronomy

Jan. 27, 2013 Rise Set
Actual Time 7:06 AM EST 4:47 PM EST
Civil Twilight 6:35 AM EST 5:18 PM EST
Nautical Twilight 6:00 AM EST 5:53 PM EST
Astronomical Twilight 5:26 AM EST 6:27 PM EST
Moon 5:42 PM EST (1/27) 6:54 AM EST (1/27)
Length of Visible Light 10h 43m
Length of Day
9h 41m
Full, 100% of the Moon is Illuminated
Jan 27
Full
Feb 3
Last Quarter
Feb 10
New
Feb 17
First Quarter
Feb 25
Full

Hourly Weather History & Observations

Time (EST) Temp. Windchill Dew Point Humidity Pressure Visibility Wind Dir Wind Speed Gust Speed Precip Events Conditions
12:54 AM 9.0 °F 0.6 °F -4.0 °F 56% 30.15 in 10.0 mi West 4.6 mph - N/A   Clear
1:54 AM 1.9 °F - -6.0 °F 69% 30.17 in 10.0 mi Calm Calm - N/A   Clear
2:54 AM 8.1 °F -3.2 °F -5.1 °F 55% 30.18 in 10.0 mi West 6.9 mph - N/A   Clear
3:54 AM 12.0 °F 0.5 °F -6.0 °F 44% 30.19 in 10.0 mi WNW 8.1 mph - N/A   Clear
4:54 AM 12.9 °F -0.9 °F -7.1 °F 41% 30.19 in 10.0 mi West 11.5 mph 18.4 mph N/A   Clear
5:54 AM 12.0 °F 2.7 °F -7.1 °F 42% 30.22 in 10.0 mi Variable 5.8 mph - N/A   Clear
6:54 AM 5.0 °F -4.1 °F -7.1 °F 58% 30.25 in 10.0 mi ESE 4.6 mph - N/A   Clear
7:54 AM 5.0 °F - -7.1 °F 58% 30.30 in 10.0 mi Calm Calm - N/A   Clear
8:54 AM 12.0 °F - -4.0 °F 49% 30.32 in 10.0 mi Calm Calm - N/A   Clear
9:54 AM 17.1 °F - -5.1 °F 37% 30.34 in 10.0 mi Calm Calm - 0.00 in   Clear
10:54 AM 19.0 °F - -2.9 °F 38% 30.34 in 10.0 mi Calm Calm - 0.00 in   Clear
11:54 AM 21.0 °F 16.2 °F -2.0 °F 36% 30.32 in 10.0 mi ENE 3.5 mph - 0.00 in   Clear
12:54 PM 24.1 °F - -2.0 °F 32% 30.32 in 10.0 mi Calm Calm - 0.00 in   Clear
1:54 PM 26.1 °F 20.5 °F -0.0 °F 32% 30.32 in 10.0 mi East 4.6 mph - 0.00 in   Clear
2:54 PM 26.1 °F 20.5 °F -2.9 °F 28% 30.32 in 10.0 mi NW 4.6 mph - 0.00 in   Clear
3:54 PM 24.1 °F 15.2 °F -4.0 °F 29% 30.34 in 10.0 mi West 8.1 mph - 0.00 in   Clear
4:54 PM 21.0 °F 12.4 °F -5.1 °F 32% 30.36 in 10.0 mi West 6.9 mph - 0.00 in   Clear
5:54 PM 19.0 °F 11.1 °F -6.0 °F 33% 30.38 in 10.0 mi Variable 5.8 mph - N/A   Clear
6:54 PM 17.1 °F 11.7 °F -8.0 °F 33% 30.40 in 10.0 mi WNW 3.5 mph - N/A   Clear
7:54 PM 10.0 °F - -6.0 °F 48% 30.41 in 10.0 mi Calm Calm - N/A   Clear
8:54 PM 6.1 °F - -8.0 °F 53% 30.41 in 10.0 mi Calm Calm - N/A   Clear
9:54 PM 1.0 °F - -9.0 °F 63% 30.41 in 10.0 mi Calm Calm - N/A   Clear
10:54 PM -2.0 °F - -9.9 °F 69% 30.41 in 10.0 mi Calm Calm - N/A   Clear
11:54 PM -0.0 °F - -8.0 °F 69% 30.42 in 10.0 mi Calm Calm - N/A   Mostly Cloudy